[Iaude] MPEC K113: 2020 KO2 [a=1.21,e=0.27,i=24.1,H=24.5]

mpec at marsden.cfa.harvard.edu mpec at marsden.cfa.harvard.edu
Thu May 21 22:19:06 EDT 2020


M.P.E.C. 2020-K113                                 Issued 2020 May 22, 02:17 UT

     The Minor Planet Electronic Circulars contain information on unusual
         minor planets and routine data on comets.  They are published
    on behalf of Division F of the International Astronomical Union by the
          Minor Planet Center, Smithsonian Astrophysical Observatory,
                          Cambridge, MA 02138, U.S.A.

             Prepared using the Tamkin Foundation Computer Network

                              MPC at CFA.HARVARD.EDU
            URL https://www.minorplanetcenter.net/    ISSN 1523-6714

                                    2020 KO2                                    


Observations:
     K20K02O* C2020 05 20.42764916 15 30.411-19 45 37.77         19.42wUEK113F51
     K20K02O  C2020 05 20.43664616 15 30.046-19 42 30.18         19.45wUEK113F51
     K20K02O  C2020 05 20.44566316 15 29.676-19 39 21.95         19.31wUEK113F51
     K20K02O  C2020 05 20.45487016 15 29.300-19 36 09.47         19.44wUEK113F51
     K20K02O  C2020 05 20.98810 16 15 35.23 -16 24 24.0          19.6 VVEK113033
     K20K02O  C2020 05 20.98871 16 15 35.20 -16 24 10.3          19.4 VVEK113033
     K20K02O  C2020 05 20.98931 16 15 35.19 -16 23 56.7          19.4 VVEK113033
     K20K02O  C2020 05 20.99003 16 15 35.17 -16 23 41.0          19.4 VVEK113033
     K20K02O KC2020 05 21.01574816 15 35.87 -16 14 04.5          19.4 GVEK113J95
     K20K02O KC2020 05 21.01810416 15 35.80 -16 13 10.8          18.9 GVEK113J95
     K20K02O KC2020 05 21.02056116 15 35.76 -16 12 15.7          19.2 GVEK113J95
     K20K02O KC2020 05 21.02296916 15 35.69 -16 11 22.5          19.2 GVEK113J95
     K20K02O IC2020 05 21.02355216 15 33.94 -16 11 02.0          19.7 GVEK113L01
     K20K02O KC2020 05 21.02747216 15 33.88 -16 09 33.2          19.8 GVEK113L01
     K20K02O KC2020 05 21.02840816 15 33.88 -16 09 12.1          19.6 GVEK113L01
     K20K02O KC2020 05 21.03116 16 15 35.26 -16 08 10.8          19.1 GUEK113I93
     K20K02O KC2020 05 21.03281 16 15 35.25 -16 07 33.6          18.9 GUEK113I93
     K20K02O KC2020 05 21.03445 16 15 35.17 -16 06 56.2          19.2 GUEK113I93
     K20K02O  C2020 05 21.27316 16 15 40.85 -14 35 47.8          18.9 GVEK113I52
     K20K02O  C2020 05 21.27342 16 15 40.85 -14 35 41.7          19.1 GVEK113I52
     K20K02O  C2020 05 21.27366 16 15 40.80 -14 35 36.5          19.3 GVEK113I52
     K20K02O  C2020 05 21.27391 16 15 40.84 -14 35 31.0          18.9 GVEK113I52
     K20K02O KC2020 05 21.29478 16 15 38.12 -14 27 34.1          19.2 RqEK113H36
     K20K02O KC2020 05 21.30967 16 15 37.63 -14 21 46.8          19.0 RqEK113H36
     K20K02O KC2020 05 21.31381 16 15 37.50 -14 20 10.4          19.2 RqEK113H36
     K20K02O KC2020 05 21.87615416 15 49.09 -10 35 06.6          18.2 GVEK113K63
     K20K02O KC2020 05 21.88262216 15 48.95 -10 32 26.3          18.4 GVEK113K63
     K20K02O KC2020 05 21.88933016 15 48.82 -10 29 40.9          19.5 GVEK113K63
     K20K02O  C2020 05 21.90185 16 15 47.84 -10 24 38.0          19.4 GVEK113246
     K20K02O  C2020 05 21.90241 16 15 47.87 -10 24 24.0                VEK113246
     K20K02O  C2020 05 21.90253 16 15 47.85 -10 24 21.0                VEK113246
     K20K02O KC2020 05 21.91103 16 15 47.82 -10 20 45.8          18.8 GVEK113595
     K20K02O KC2020 05 21.91889 16 15 48.12 -10 17 29.3          18.9 GVEK113203
     K20K02O KC2020 05 21.92031 16 15 47.61 -10 16 55.6          19.2 GVEK113595
     K20K02O IC2020 05 21.93028 16 15 47.33 -10 12 47.3          18.6 GVEK113595
     K20K02O KC2020 05 21.93351 16 15 47.71 -10 11 26.6          18.9 GVEK113203
     K20K02O KC2020 05 21.95050816 15 47.07 -10 04 21.3          18.9 GVEK113104
     K20K02O KC2020 05 21.96092116 15 46.72 -10 00 01.1          19.2 GVEK113104
     K20K02O KC2020 05 21.96487616 15 46.63 -09 58 23.0          19.2 GVEK113104
     K20K02O HC2020 05 21.98162 16 15 46.32 -09 51 26.1          19.1 GVEK113204
     K20K02O KC2020 05 21.98892 16 15 46.09 -09 48 23.4                VEK113204
     K20K02O KC2020 05 21.99485 16 15 45.91 -09 45 54.8                VEK113204

Observer details:
033 Karl Schwarzschild Observatory, Tautenburg.  Observers S. Melnikov, B.
    Stecklum.  Measurer B. Stecklum.  1.34-m f/3 Schmidt + CCD.
104 San Marcello Pistoiese.  Observers P. Bacci, M. Maestripieri, M. D.
    Grazia.  Measurers P. Bacci, L. Tesi, G. Fagioli.  0.60-m reflector + CCD.
203 GiaGa Observatory.  Observers S. Foglia, G. Galli.  Measurer G. Galli.
    0.36-m f/5.76 Schmidt-Cassegrain + CCD.
204 Schiaparelli Observatory.  Observer L. Buzzi.  0.84-m f/3.5 reflector +
    CCD.
246 Klet Observatory-KLENOT.  Observers M. Tichy, J. Ticha.  Measurer M.
    Tichy.  1.06-m f/2.7 reflector + 2048x2048 CCD.
595 Farra d'Isonzo.  Observer E. Pettarin.  0.61-m f/4.5 reflector + CCD.
F51 Pan-STARRS 1, Haleakala.  Observers J. Bulger, T. Lowe, A. Schultz, M.
    Willman.  Measurers K. Chambers, S. Chastel, T. de Boer, L. Denneau, J.
    Fairlamb, H. Flewelling, M. Huber, C.-C. Lin, E. Magnier, Y. Ramanjooloo,
    R. Wainscoat, R. Weryk.  1.8-m Ritchey-Chretien + CCD.
H36 Sandlot Observatory, Scranton.  Observer G. Hug.  0.56-m reflector + CCD.
I52 Steward Observatory, Mt. Lemmon Station.  Observer T. A. Pruyne.
    Measurers E. J. Christensen, G. A. Farneth, D. C. Fuls, A. R. Gibbs, A. D.
    Grauer, H. Groeller, R. A. Kowalski, S. M. Larson, G. J. Leonard, T. A.
    Pruyne, D. Rankin, R. L. Seaman, F. C. Shelly, K. W. Wierzchos.  1.0-m
    reflector + CCD.
I93 St Pardon de Conques.  Observer F. Losse.  0.40-m f/3.7 reflector + CCD.
J95 Great Shefford.  Observer P. Birtwhistle.  0.41-m f/6.3 Schmidt-Cassegrain
    + CCD.
K63 G. Pascoli Observatory, Castelvecchio Pascoli.  Observer R. Bacci.  0.4-m
    f/3.2 Newtonian reflector + CCD.
L01 Visnjan Observatory, Tican.  Observer K. Korlevic.  1.0-m f/2.9 reflector
    + CCD.

Orbital elements:
2020 KO2                                                 Earth MOID = 0.0590 AU
Epoch 2020 May 31.0 TT = JDT 2459000.5                  Veres
M 314.63221              (2000.0)            P               Q
n   0.74411200     Peri.   82.87922     +0.71987179     +0.59774456
a   1.2060830      Node   239.74178     -0.67820097     +0.71392300
e   0.2685598      Incl.   24.10908     +0.14774318     +0.36471274
P   1.32           H   24.5           G   0.15           U   8
Residuals in seconds of arc
200520 F51  0.1-  0.0     200521 L01  0.5+  0.0     200521 246  0.3-  0.5-
200520 F51  0.1-  0.1+    200521 I93  0.2-  0.2-    200521 246  0.3+  0.4-
200520 F51  0.1-  0.1+    200521 I93  0.3+  0.1-    200521 246  0.0   0.4-
200520 F51  0.0   0.1+    200521 I93  0.1-  0.3+    200521 595  0.4-  0.1+
200520 033  0.2-  0.6-    200521 I52  0.1-  0.4-    200521 203  0.1-  0.5+
200520 033  0.4-  0.5-    200521 I52  0.1+  0.4-    200521 595  0.3+  0.1-
200520 033  0.3-  0.3-    200521 I52  0.5-  0.7-    200521 595  0.3+  0.4+
200520 033  0.4-  0.8-    200521 I52  0.2+  1.0-    200521 203  0.2-  0.2-
200521 J95  0.2+  0.5-    200521 H36  0.2+  2.2+    200521 104  0.1+  0.1-
200521 J95  0.0   0.3+    200521 H36  0.4+  3.0+    200521 104  0.3-  0.3+
200521 J95  0.3+  0.2+    200521 H36  0.5+  2.9+    200521 104  0.2+  0.4-
200521 J95  0.1+  0.7-    200521 K63  0.5-  0.5-    200521 204  0.1+  0.2+
200521 L01  0.6-  0.5-    200521 K63  0.4-  0.1+    200521 204  0.1-  0.1+
200521 L01  0.1+  0.0     200521 K63  0.0   0.4-    200521 204  0.1-  0.1+

Ephemeris:
2020 KO2                 a,e,i = 1.21, 0.27, 24                  q = 0.8822
Date    TT    R. A. (2000) Decl.     Delta      r    Elong.  Phase     V
2020 04 22    15 58 38.7 -61 04 53   0.2955  1.2047   126.5    42.1    23.9
...
2020 05 07    16 10 54.5 -54 31 30   0.1656  1.1403   139.6    35.0    22.3
...
2020 05 15    16 14 13.2 -41 36 20   0.1032  1.1054   155.2    22.5    20.9
...
2020 05 21    16 15 35.6 -16 18 15   0.06764 1.0794   173.2     6.4    19.3
2020 05 22    16 15 46.3 -09 42 13   0.06393 1.0750   168.3    11.0    19.4
2020 05 23    16 15 56.7 -02 24 41   0.06119 1.0707   161.4    17.5    19.5
...
2020 05 29    16 17 07.5 +42 34 35   0.06838 1.0452   115.8    60.8    20.9
...
2020 06 06    16 20 21.7 +71 41 08   0.1160  1.0122    85.5    88.0    22.9
...
2020 06 21    16 42 05.2 +88 11 18   0.2242  0.9563    68.3    99.1    24.7

M. P. C. Staff               (C) Copyright 2020 MPC           M.P.E.C. 2020-K113




More information about the Iaude mailing list